STARLINK-5183 (54084 NORAD) Tracking and Keplerian Element Data

This shows tracking and keplerian element data for the satellite.

Feedback or suggestion? Click here.




ElementValue
Catalog54084
NameSTARLINK-5183
Epoch Orbit550
Epoch Day325.33334491
Epoch Year2022
RAAN350.895
Inclination53.2149
Eccentricity0.0004243
Argument of Perigee2.1842
Mean Anonmoly342.7031
Mean Motion15.73200207
Decay Rate-0.00057656
L11 54084U 22136AK 22325.33334491 -.00057656 00000+0 -40892-3 0 9995
L22 54084 53.2149 350.8950 0004243 2.1842 342.7031 15.73200207 5504



Live tracking and technical data element details for STARLINK-5183 (NORAD 54084). STARLINK-5183 can be tracked NOW for your location showing map with azimuth and elevation plus other details from your city location.







IsCatalogInMostPopularTable: catalog: 54084, numindb: 1
Update: records affected: 1



GetName: 54084 STARLINK-5183

Hit Count: updated at: Fri, 09 Dec 2022 18:28:06 GMT